Regional Weather Roundup
Issued by NWS New Orleans/Baton Rouge, LA

Home | Current Version | Previous Version | Text Only | Print | Product List | Glossary On
Versions: 1 2 3 4 5 6 7 8 9 10 11 12 13 14 15 16 17 18 19 20 21 22 23 24 25 26 27 28 29 30 31 32 33 34 35 36 37 38 39 40 41 42 43 44 45 46 47 48 49 50
494
ASUS44 KLIX 312210
RWRLIX
NEW ORLEANS REGIONAL WEATHER ROUNDUP
NATIONAL WEATHER SERVICE NEW ORLEANS LA
400 PM CST SAT JAN 31 2015

NOTE: "FAIR" INDICATES FEW OR NO CLOUDS BELOW 12,000 FEET WITH NO
      SIGNIFICANT WEATHER AND/OR OBSTRUCTIONS TO VISIBILITY.
      SKY/WX - SKY CONDITION AND SIGNIFICANT WEATHER.
      TMP - AIR TEMPERATURE.     DP    - DEWPOINT TEMPERATURE.
      RH  - RELATIVE HUMIDITY.   PRES  - PRESSURE.
      HI  - HEAT INDEX.          WCI   - WIND CHILL INDEX.

*  THESE STATIONS ARE NOT NWS OR FAA STATIONS AND ARE NOT UNDER
   NWS QUALITY CONTROL.

LAZ038-040-048-061>063-065>067-069-312300-
SOUTHEAST LOUISIANA

CITY           SKY/WX    TMP DP  RH WIND       PRES   REMARKS
N.O. AUDUBON     N/A     61  53  73 MISG        N/A
N.O. INTL ARPT PTSUNNY   59  48  67 E13       30.18F
N.O. LAKEFRONT CLOUDY    59  48  67 E16       30.19F
N.O. DOWNTOWN* NOT AVBL
SLIDELL        PTSUNNY   60  46  59 SE9       30.21S
BATON ROUGE    PTSUNNY   60  45  57 SE10      30.17F
BOOTHVILLE     MOSUNNY   64  52  64 E9        30.19S
BELLE CHASSE   PTSUNNY   62  48  60 E16       30.17F
BOGALUSA*        N/A     64  43  46 S8        30.21S
GALLIANO*      PTCLDY    65  51  61 E6        30.17S
NEW ROADS*       N/A     61  45  55 E7        30.16S
GONZALES*        N/A     58  48  69 E6        30.17F
HAMMOND*       CLOUDY    61  46  59 SE9       30.21S
HOUMA*         MOSUNNY   63  52  67 E14       30.16S
PORT FOURCHON* CLEAR     64  54  68 E15G22    30.18S

$$

MSZ070-080>082-312300-
SOUTHERN MISSISSIPPI

CITY           SKY/WX    TMP DP  RH WIND       PRES   REMARKS
MCCOMB         CLOUDY    58  35  42 SE8       30.19F
GULFPORT       CLOUDY    57  45  64 E14       30.21F
BILOXI         PTSUNNY   59  46  62 E13       30.21F
PASCAGOULA     SUNNY     59  43  55 SE9       30.22F
STENNIS ARPT*  SUNNY     57  43  58 E10       30.22F

$$

COASTAL OBSERVATIONS
LAKE AND NEARSHORE STATIONS

STATION/POSITION TIME  TEMP    WIND        PRES    WAVE
                       AIR SEA DIR/SP/G            HT/PER
                 (UTC) (F)     (DEG/KT/KT) (MB)    (FT/S)
PASCAGOULA       2200   58     100/ 12/ 15 1023.0
WAVELAND YACHT   2200   55     120/ 12/ 15 1022.3
GRAND ISLE       2200   65 62  100/ 11/ 16 1021.8
SOUTHWEST PASS   2200   68 47  100/ 14/ 15 1021.8
NEW CANAL        2200   58 56   80/ 11/ 15 1022.4
SHELL BEACH      2200   59 57  100/ 13/ 15 1022.2

OFFSHORE STATIONS

STATION/POSITION TIME  TEMP    WIND        PRES    WAVE
                       AIR SEA DIR/SP/G            HT/PER
                 (UTC) (F)     (DEG/KT/KT) (MB)    (FT/S)
64 S DAUPHIN ISL 2122   62 69  110/ 16/ 19 1022.6    5/ 6

$$




USA.gov is the U.S. government's official web portal to all federal, state and local government web resources and services.